Location: Austin
(30.3000°N, 97.7500°W)
Time: 05:26:58
(UTC-06:00)

YAOGAN 1 - Pass Details

Date: 15 November 2024
Orbit: 609 x 611 km, 97.8° (Epoch: 06 December)

Event Time Altitude Azimuth Distance (km) Brightness Sun altitude
Rises 18:43:41 0° 146° (SE) 2,859 5.8 -15.2°
Reaches altitude 10° 18:46:01 10° 136° (SE) 1,958 4.8 -15.7°
Maximum altitude 18:49:49 32° 73° (ENE) 1,050 3.2 -16.5°
Drops below altitude 10° 18:53:37 10° 10° (N) 1,967 4.9 -17.3°
Sets 18:55:58 0° 1° (N) 2,874 5.9 -17.8°
